1508500800.37,32760,17.19,74004.3,11.79,-32.51,-34.53,0,*47
1508500801.59,32761,17.19,74004.5,11.79,-32.91,-34.89,0,*4D
1508500802.85,32762,17.19,74002.3,11.75,-32.75,-34.59,0,*45
1508500804.09,32763,17.19,74004.3,11.73,-31.95,-33.67,0,*45
1508500805.34,32764,17.19,74004.0,11.73,-32.29,-34.01,0,*41
1508500806.58,32765,17.19,74000.3,11.73,-32.07,-33.83,0,*41
1508500807.84,32766,17.19,74002.3,11.71,-31.45,-32.97,0,*41
1508500809.07,32767,17.19,74002.0,11.69,-31.39,-33.03,0,*4E
1508500810.31,32768,17.19,74002.5,11.69,-31.73,-33.37,0,*48
1508500811.55,32769,17.19,74002.3,11.69,-31.45,-33.09,0,*41
1508500812.81,32770,17.19,73998.5,11.71,-32.13,-33.73,0,*4D
1508500814.05,32771,17.19,74002.8,11.69,-30.95,-32.51,0,*48
1508500815.27,32772,17.19,74002.3,11.69,-30.55,-32.13,0,*41
1508500816.47,32773,17.19,74000.3,11.69,-30.33,-31.79,0,*4F
1508500817.72,32774,17.19,74000.0,11.69,-29.67,-31.23,0,*4E
1508500818.98,32775,17.19,74002.5,11.71,-29.13,-30.67,0,*44
1508500820.26,32776,17.19,74002.5,11.71,-30.39,-31.95,0,*4B
1508500821.51,32777,17.19,74000.8,11.71,-29.67,-31.29,0,*4E
1508500822.75,32778,17.19,74002.8,11.73,-29.29,-30.83,0,*48
1508500824.01,32779,17.19,74000.8,11.75,-29.23,-30.77,0,*4E
1508500825.29,32780,17.19,74002.3,11.75,-29.35,-30.83,0,*44
1508500826.52,32781,17.19,74002.0,11.75,-31.17,-32.91,0,*4D
1508500827.75,32782,17.19,74004.3,11.75,-31.01,-32.51,0,*45
1508500829.03,32783,17.19,74002.0,11.73,-29.39,-30.89,0,*47
1508500830.23,32784,17.19,74000.3,11.73,-30.11,-31.67,0,*43
1508500831.47,32785,17.19,74000.5,11.75,-29.95,-31.45,0,*40
1508500832.72,32786,17.19,74000.5,11.75,-30.45,-32.07,0,*43
1508500833.98,32787,17.19,74000.0,11.75,-30.05,-31.45,0,*43
1508500835.22,32788,17.19,74002.3,11.75,-28.53,-29.95,0,*42
1508500836.48,32789,17.19,74000.8,11.75,-28.15,-29.35,0,*4B
1508500837.73,32790,17.19,74002.3,11.81,-28.09,-29.35,0,*45
1508500838.96,32791,17.19,74000.3,11.81,-28.43,-29.83,0,*47
1508500840.26,32792,17.19,74006.0,11.79,-29.35,-30.89,0,*41
1508500841.47,32793,17.19,74004.3,11.85,-29.67,-31.05,0,*41
1508500842.71,32794,17.19,74002.3,11.85,-28.79,-30.33,0,*4C
1508500843.92,32795,17.19,74004.5,11.85,-29.45,-31.05,0,*47
1508500845.19,32796,17.19,74004.0,11.85,-29.39,-31.23,0,*4B
1508500846.43,32797,17.19,74002.5,11.81,-30.39,-31.95,0,*4B
1508500847.69,32798,17.19,74000.0,11.81,-30.95,-32.63,0,*48
1508500848.95,32799,17.19,74000.8,11.81,-30.95,-32.45,0,*4D
1508500850.19,32800,17.19,74006.0,11.81,-30.51,-32.29,0,*40
1508500851.43,32801,17.19,74000.3,11.79,-29.57,-31.05,0,*45
1508500852.72,32802,17.19,74000.5,11.79,-29.01,-30.55,0,*41
1508500853.93,32803,17.19,73998.3,11.81,-28.85,-30.33,0,*4A
1508500855.14,32804,17.19,74000.5,11.81,-28.15,-29.57,0,*4E
1508500856.4,32805,17.19,74002.3,11.81,-28.09,-29.51,0,*44
1508500857.61,32806,17.19,74002.0,11.85,-29.45,-31.05,0,*42
1508500858.85,32807,17.19,74002.3,11.85,-30.01,-31.57,0,*4C
1508500860.1,32808,17.19,74000.8,11.79,-29.83,-31.45,0,*41
1508500861.35,32809,17.19,74002.0,11.81,-28.47,-30.17,0,*48
1508500862.59,32810,17.19,74000.0,11.85,-29.23,-30.73,0,*45
1508500863.82,32811,17.19,74004.0,11.89,-28.97,-30.55,0,*42
1508500865.08,32812,17.19,74002.3,11.85,-29.13,-30.89,0,*41
1508500866.32,32813,17.19,74006.3,11.85,-29.13,-30.83,0,*4A
1508500867.56,32814,17.19,74004.8,11.85,-28.97,-30.73,0,*4F
1508500868.79,32815,17.19,74000.3,11.85,-29.29,-31.05,0,*4A
1508500870.06,32816,17.19,74000.8,11.87,-30.39,-32.07,0,*43
1508500871.27,32817,17.19,74006.8,11.85,-30.27,-31.79,0,*45
1508500872.52,32818,17.19,74006.3,11.81,-30.01,-31.73,0,*40
1508500873.81,32819,17.19,74000.8,11.79,-29.17,-30.77,0,*4C
1508500875.07,32820,17.19,74002.8,11.79,-28.97,-30.55,0,*4F
1508500876.32,32821,17.19,74004.8,11.81,-29.29,-30.95,0,*41
1508500877.57,32822,17.19,74006.5,11.79,-28.53,-30.33,0,*45
1508500878.8,32823,17.19,74006.0,11.79,-30.23,-32.13,0,*4A
1508500880.05,32824,17.19,74004.0,11.81,-30.51,-32.19,0,*45
1508500881.31,32825,17.19,74010.0,11.79,-29.67,-31.39,0,*4F
1508500882.61,32826,17.19,74004.8,11.79,-29.17,-30.77,0,*40
1508500883.87,32827,17.19,74010.0,11.79,-28.69,-30.39,0,*43
1508500885.14,32828,17.19,74004.3,11.79,-28.97,-30.61,0,*40
1508500886.42,32829,17.19,74006.5,11.79,-27.99,-29.73,0,*4B
1508500887.65,32830,17.19,74000.0,11.85,-28.37,-30.01,0,*46
1508500888.87,32831,17.19,74004.0,11.85,-29.45,-31.17,0,*45
1508500890.07,32832,17.19,74006.0,11.85,-29.67,-31.33,0,*40
1508500891.3,32833,17.19,74002.8,11.85,-28.43,-29.95,0,*43
1508500892.53,32834,17.19,74004.0,11.85,-27.71,-29.17,0,*40
1508500893.8,32835,17.19,74006.5,11.87,-27.35,-28.91,0,*4C
1508500895.06,32836,17.19,74000.8,11.87,-28.21,-29.79,0,*42
1508500896.29,32837,17.19,74006.8,11.89,-27.99,-29.45,0,*4E
1508500897.51,32838,17.19,74006.0,11.89,-26.71,-28.37,0,*42
1508500898.73,32839,17.19,74008.0,11.89,-27.13,-28.75,0,*40
1508500899.98,32840,17.19,74004.5,11.91,-27.29,-28.79,0,*42
1508500901.17,32841,17.19,74006.0,11.93,-27.55,-29.23,0,*44
1508500902.43,32842,17.19,74006.0,11.95,-27.77,-29.51,0,*44
1508500903.68,32843,17.19,74004.8,11.95,-27.77,-29.29,0,*4A
1508500904.93,32844,17.19,74006.3,11.95,-28.21,-29.79,0,*44
1508500906.16,32845,17.19,74004.8,11.97,-27.55,-29.07,0,*42
1508500907.39,32846,17.19,74006.5,11.99,-27.51,-29.01,0,*4D
1508500908.62,32847,17.19,74004.3,11.99,-26.81,-28.53,0,*46
1508500909.85,32848,17.19,74004.8,12.01,-27.13,-28.69,0,*48
1508500911.14,32849,17.19,74006.8,12.01,-26.97,-28.79,0,*45
1508500912.39,32850,17.19,74008.3,12.05,-27.07,-28.79,0,*41
1508500913.64,32851,17.19,74006.5,12.05,-27.07,-28.79,0,*40
1508500914.84,32852,17.19,74008.8,12.07,-27.77,-29.45,0,*48
1508500916.07,32853,17.19,74006.3,12.07,-28.05,-29.79,0,*4C
1508500917.32,32854,17.19,74006.5,12.09,-27.19,-28.85,0,*45
1508500918.55,32855,17.19,74004.0,12.09,-27.03,-28.85,0,*4F
1508500919.83,32856,17.19,74006.3,12.09,-27.99,-29.89,0,*42
1508500921.08,32857,17.19,74008.5,12.09,-28.43,-30.33,0,*42
1508500922.31,32858,17.19,74004.8,12.07,-28.25,-30.27,0,*46
1508500923.56,32859,17.19,74006.0,12.09,-30.83,-32.97,0,*45
1508500924.8,32860,17.19,74008.8,12.07,-31.29,-33.43,0,*48
1508500926.05,32861,17.19,74006.3,12.05,-29.79,-31.73,0,*46
1508500927.29,32862,17.19,74004.8,12.05,-29.45,-31.45,0,*4F
1508500928.58,32863,17.19,74008.3,12.01,-29.17,-31.23,0,*4D
1508500929.83,32864,17.19,74010.5,12.01,-30.55,-32.69,0,*49
1508500931.06,32865,17.19,74006.3,11.99,-31.67,-33.77,0,*44
1508500932.31,32866,17.19,74006.3,11.97,-31.01,-32.97,0,*46
1508500933.59,32867,17.19,74006.3,11.95,-31.61,-33.73,0,*48
1508500934.84,32868,17.19,74004.5,11.93,-31.39,-33.31,0,*4A
1508500936.04,32869,17.19,74006.0,11.93,-33.03,-35.17,0,*42
1508500937.29,32870,17.19,74004.3,11.91,-32.51,-34.53,0,*4F
1508500938.58,32871,17.19,74002.5,11.87,-29.89,-31.85,0,*48
1508500939.86,32872,17.19,74002.8,11.87,-28.59,-30.51,0,*4F
1508500941.1,32873,17.19,73996.8,11.87,-28.37,-30.23,0,*43
1508500942.32,32874,17.19,73996.3,11.89,-28.21,-30.11,0,*4C
1508500943.57,32875,17.19,74002.0,11.91,-27.99,-29.67,0,*41
1508500944.86,32876,17.19,74000.0,11.91,-27.61,-29.35,0,*42
1508500946.12,32877,17.19,73998.5,11.95,-28.59,-30.33,0,*4D
1508500947.32,32878,17.19,74000.3,11.93,-30.27,-32.13,0,*44
1508500948.55,32879,17.19,74002.0,11.93,-29.79,-31.91,0,*4F
1508500949.75,32880,17.19,74000.8,11.93,-30.33,-32.39,0,*4E
1508500951.02,32881,17.19,74004.8,11.91,-30.05,-32.19,0,*4A
1508500952.25,32882,17.19,74002.5,11.91,-29.83,-31.79,0,*4A
1508500953.48,32883,17.19,74000.5,11.91,-28.37,-30.45,0,*4B
1508500954.76,32884,17.19,74002.8,11.91,-29.17,-31.39,0,*45
1508500955.99,32885,17.19,74000.8,11.89,-29.61,-31.85,0,*4B
1508500957.27,32886,17.19,74000.8,11.91,-29.51,-31.39,0,*45
1508500958.5,32887,17.19,74000.3,11.89,-29.79,-31.61,0,*4A
1508500959.73,32888,17.19,74002.3,11.91,-29.83,-31.79,0,*40
1508500961.01,32889,17.25,74006.5,11.91,-28.79,-30.73,0,*4E
1508500962.29,32890,17.19,74006.0,11.91,-29.13,-31.23,0,*4F
1508500963.54,32891,17.19,74004.3,11.91,-30.17,-32.57,0,*42
1508500964.76,32892,17.19,74002.5,11.91,-31.45,-33.55,0,*44
1508500965.96,32893,17.19,74006.5,11.89,-32.39,-34.71,0,*45
1508500967.2,32894,17.19,74006.5,11.85,-31.73,-33.67,0,*43
1508500968.43,32895,17.19,74004.5,11.85,-31.05,-32.85,0,*4E
1508500969.63,32896,17.19,74004.5,11.85,-30.11,-31.79,0,*49
1508500970.9,32897,17.19,74004.0,11.87,-29.35,-31.17,0,*4C
1508500972.13,32898,17.19,74010.3,11.87,-29.23,-31.01,0,*43
1508500973.39,32899,17.19,74004.3,11.87,-29.23,-31.11,0,*43
1508500974.63,32900,17.19,74010.5,11.87,-30.27,-32.23,0,*4C
1508500975.85,32901,17.19,74004.8,11.85,-32.19,-34.41,0,*42
1508500977.09,32902,17.19,74006.0,11.81,-32.69,-34.65,0,*44
1508500978.35,32903,17.19,74006.3,11.79,-32.69,-34.53,0,*47
1508500979.64,32904,17.19,74006.0,11.79,-32.63,-34.65,0,*4F
1508500980.9,32905,17.19,74006.8,11.75,-32.23,-34.01,0,*44
1508500982.13,32906,17.19,74010.0,11.73,-32.63,-34.59,0,*48
1508500983.36,32907,17.19,74008.8,11.71,-32.35,-34.07,0,*43
1508500984.55,32908,17.19,74004.8,11.73,-31.01,-32.57,0,*49
1508500985.8,32909,17.19,74002.8,11.69,-30.55,-32.29,0,*4A
1508500987.03,32910,17.19,74008.3,11.71,-30.23,-31.79,0,*4C
1508500988.26,32911,17.19,74006.0,11.69,-30.23,-31.73,0,*4E
1508500989.52,32912,17.19,74004.5,11.71,-32.19,-33.95,0,*45
1508500990.75,32913,17.19,74006.5,11.69,-31.29,-32.85,0,*4D
1508500992.01,32914,17.19,74004.3,11.69,-30.73,-32.19,0,*41
1508500993.25,32915,17.25,74008.5,11.69,-29.45,-30.95,0,*4B
1508500994.49,32916,17.19,74004.8,11.69,-29.51,-31.05,0,*45
1508500995.73,32917,17.25,74008.3,11.69,-28.97,-30.55,0,*4B
1508500996.94,32918,17.19,74006.3,11.73,-28.37,-29.83,0,*46
1508500998.19,32919,17.19,74008.5,11.75,-30.61,-32.35,0,*4C
1508500999.39,32920,17.19,74010.8,11.73,-31.01,-32.57,0,*43
1508501000.65,32921,17.19,74010.0,11.71,-31.61,-33.55,0,*45
1508501001.89,32922,17.19,74006.8,11.69,-32.79,-34.47,0,*41
1508501003.14,32923,17.25,74006.8,11.69,-33.43,-35.23,0,*4B
1508501004.38,32924,17.19,74006.3,11.65,-32.79,-34.77,0,*48
1508501005.6,32925,17.19,74004.3,11.65,-32.13,-33.89,0,*43
1508501006.88,32926,17.19,74008.3,11.61,-32.63,-33.89,0,*43
1508501008.14,32927,17.19,74006.8,11.61,-31.29,-32.97,0,*41
1508501009.39,32928,17.19,74004.8,11.59,-31.91,-33.61,0,*4E
1508501010.65,32929,17.19,74006.5,11.59,-31.85,-33.31,0,*4F
1508501011.88,32930,17.25,74004.8,11.59,-31.57,-33.15,0,*4E
1508501013.11,32931,17.25,74006.3,11.57,-31.45,-33.03,0,*45
1508501014.39,32932,17.19,74004.3,11.57,-29.89,-31.51,0,*4A
1508501015.63,32933,17.25,74004.3,11.57,-29.67,-31.17,0,*49
1508501016.89,32934,17.25,74002.5,11.57,-29.67,-31.11,0,*48
1508501018.14,32935,17.19,74002.5,11.59,-29.35,-30.83,0,*4A
1508501019.43,32936,17.25,74002.3,11.61,-29.35,-30.89,0,*48
1508501020.67,32937,17.25,74004.3,11.61,-28.85,-30.33,0,*42
1508501021.91,32938,17.19,74000.8,11.63,-28.21,-29.61,0,*4E
1508501023.14,32939,17.19,74002.8,11.63,-28.21,-29.61,0,*4F
1508501024.37,32940,17.19,73998.5,11.65,-28.59,-30.27,0,*42
1508501025.63,32941,17.19,73998.8,11.67,-29.79,-31.61,0,*41
1508501026.89,32942,17.25,74002.0,11.67,-28.63,-30.23,0,*4F
1508501028.13,32943,17.25,74006.8,11.65,-29.07,-30.89,0,*4F
1508501029.4,32944,17.25,74004.5,11.67,-29.57,-31.61,0,*48
1508501030.65,32945,17.25,74004.8,11.65,-31.39,-32.97,0,*40
1508501031.9,32946,17.25,74004.5,11.65,-30.77,-32.63,0,*43
1508501033.13,32947,17.25,74006.3,11.65,-31.01,-32.75,0,*45
1508501034.39,32948,17.25,74002.5,11.63,-30.17,-31.85,0,*46
1508501035.62,32949,17.25,74004.8,11.63,-29.83,-31.57,0,*4D
1508501036.86,32950,17.25,74006.3,11.63,-30.11,-31.85,0,*49
1508501038.09,32951,17.25,74004.3,11.63,-31.05,-32.79,0,*4C
1508501039.35,32952,17.25,74006.0,11.61,-30.83,-32.45,0,*4D
1508501040.63,32953,17.25,74004.8,11.61,-30.01,-31.39,0,*4E
1508501041.89,32954,17.25,74004.0,11.61,-28.85,-30.51,0,*43
1508501043.13,32955,17.25,74000.5,11.63,-28.91,-30.45,0,*40
1508501044.36,32956,17.25,74000.0,11.63,-28.25,-29.61,0,*42
1508501045.6,32957,17.19,73998.5,11.63,-28.09,-29.57,0,*48
1508501046.8,32958,17.25,73998.8,11.65,-28.69,-30.11,0,*4D
1508501048.07,32959,17.19,73996.8,11.67,-28.47,-29.73,0,*4E
1508501049.36,32960,17.19,74000.0,11.67,-27.99,-29.35,0,*4A
1508501050.59,32961,17.25,74002.0,11.69,-28.31,-29.73,0,*4A
1508501051.84,32962,17.25,74004.0,11.69,-28.43,-30.05,0,*45
1508501053.14,32963,17.25,74000.8,11.71,-29.01,-30.89,0,*4E
1508501054.4,32964,17.19,74002.0,11.69,-29.29,-31.11,0,*4A
1508501055.64,32965,17.25,74002.5,11.69,-28.85,-30.51,0,*49
1508501056.91,32966,17.25,74006.8,11.71,-29.45,-31.11,0,*4B
1508501058.18,32967,17.25,74004.8,11.69,-29.35,-30.89,0,*44
1508501059.44,32968,17.25,74008.5,11.71,-28.85,-30.51,0,*4D
1508501060.71,32969,17.25,74004.0,11.71,-28.85,-30.51,0,*4C
1508501061.97,32970,17.19,74002.5,11.71,-28.79,-30.33,0,*43
1508501063.24,32971,17.19,74002.8,11.71,-28.79,-30.33,0,*42
1508501064.5,32972,17.25,74008.3,11.69,-28.63,-30.39,0,*49
1508501065.73,32973,17.25,74010.5,11.73,-29.61,-31.51,0,*4F
1508501067.0,32974,17.19,74004.5,11.71,-29.67,-31.39,0,*42
1508501068.3,32975,17.25,74006.8,11.71,-29.29,-30.77,0,*42
1508501069.56,32976,17.25,74006.0,11.69,-29.17,-30.73,0,*41
1508501070.83,32977,17.25,74004.3,11.71,-28.25,-29.67,0,*44
1508501072.09,32978,17.19,74004.5,11.73,-28.43,-30.01,0,*41
1508501073.33,32979,17.25,74006.0,11.73,-29.57,-31.23,0,*45
1508501074.57,32980,17.19,74002.0,11.73,-29.95,-31.51,0,*48
1508501075.82,32981,17.25,74000.8,11.69,-30.05,-31.61,0,*40
1508501077.1,32982,17.25,74004.5,11.71,-30.01,-31.57,0,*4B
1508501078.39,32983,17.25,74006.0,11.71,-29.17,-30.55,0,*46
1508501079.65,32984,17.25,74004.0,11.69,-27.99,-29.35,0,*4E
1508501080.9,32985,17.25,74004.3,11.71,-27.67,-29.13,0,*43
1508501082.16,32986,17.25,74004.8,11.75,-27.67,-29.01,0,*47
1508501083.41,32987,17.25,74004.8,11.75,-27.51,-28.75,0,*41
1508501084.7,32988,17.25,74000.3,11.75,-26.97,-28.47,0,*44
1508501085.95,32989,17.25,74006.5,11.79,-27.23,-28.69,0,*4B
1508501087.19,32990,17.25,74006.8,11.81,-28.63,-30.33,0,*49
1508501088.43,32991,17.25,74004.8,11.79,-29.57,-31.29,0,*43
1508501089.72,32992,17.25,74006.8,11.79,-29.35,-30.95,0,*42
1508501090.99,32993,17.25,74006.8,11.79,-28.25,-29.83,0,*4C
1508501092.23,32994,17.25,74004.5,11.79,-28.15,-29.83,0,*48
1508501093.49,32995,17.25,74006.8,11.79,-28.97,-30.73,0,*44
1508501094.73,32996,17.25,74004.3,11.79,-27.77,-29.45,0,*4B
1508501095.96,32997,17.25,74006.3,11.81,-27.99,-29.83,0,*47
1508501097.24,32998,17.25,74006.0,11.79,-28.47,-30.51,0,*44
1508501098.5,32999,17.25,74006.8,11.79,-29.17,-31.05,0,*41
1508501099.79,33000,17.25,74004.8,11.79,-29.13,-30.89,0,*48
1508501101.06,33001,17.25,74004.5,11.79,-29.89,-31.79,0,*44
1508501102.32,33002,17.25,74008.5,11.79,-29.01,-31.05,0,*4C
1508501103.58,33003,17.25,74008.0,11.73,-29.29,-31.23,0,*49
1508501104.84,33004,17.25,74010.0,11.75,-29.17,-31.33,0,*44
1508501106.1,33005,17.25,74006.3,11.73,-30.01,-32.07,0,*48
1508501107.33,33006,17.25,74006.8,11.75,-29.57,-31.67,0,*43
1508501108.56,33007,17.25,74008.3,11.73,-29.61,-31.57,0,*42
1508501109.8,33008,17.25,74004.0,11.73,-28.75,-30.67,0,*4B
1508501111.07,33009,17.25,74006.0,11.75,-28.75,-30.67,0,*4C
1508501112.27,33010,17.25,74008.0,11.73,-27.89,-29.67,0,*46
1508501113.55,33011,17.25,74002.5,11.75,-27.39,-29.39,0,*41
1508501114.81,33012,17.25,74004.5,11.75,-27.03,-29.01,0,*40
1508501116.06,33013,17.25,74008.3,11.79,-27.29,-29.29,0,*4F
1508501117.3,33014,17.25,74004.3,11.85,-27.55,-29.51,0,*4F
1508501118.53,33015,17.25,74004.8,11.79,-28.31,-30.33,0,*4C
1508501119.76,33016,17.25,74004.5,11.81,-27.93,-30.05,0,*4A
1508501121.03,33017,17.25,74004.3,11.81,-28.63,-30.89,0,*4F
1508501122.26,33018,17.25,74006.3,11.85,-29.67,-31.91,0,*49
1508501123.49,33019,17.25,74006.0,11.85,-29.79,-31.91,0,*47
1508501124.75,33020,17.25,74010.3,11.79,-30.39,-32.51,0,*4D
1508501125.98,33021,17.25,74006.5,11.79,-31.05,-33.03,0,*44
1508501127.21,33022,17.25,74006.8,11.73,-32.07,-34.41,0,*4D
1508501128.44,33023,17.25,74006.3,11.73,-33.21,-35.53,0,*4B
1508501129.68,33024,17.25,74006.5,11.69,-32.69,-34.83,0,*46
1508501130.91,33025,17.25,74008.3,11.65,-31.85,-33.83,0,*4D
1508501132.11,33026,17.25,74002.3,11.65,-30.45,-32.13,0,*4B
1508501133.33,33027,17.25,74006.0,11.63,-30.51,-32.13,0,*49
1508501134.54,33028,17.25,74002.8,11.65,-30.11,-32.01,0,*47
1508501135.77,33029,17.25,74004.3,11.65,-28.59,-30.27,0,*45
1508501136.99,33030,17.25,74002.5,11.65,-28.31,-30.05,0,*43
1508501138.22,33031,17.25,74002.5,11.69,-28.31,-30.05,0,*4E
1508501139.49,33032,17.25,74000.3,11.67,-28.05,-29.57,0,*4B
1508501140.75,33033,17.25,74006.0,11.69,-27.61,-29.29,0,*40
1508501142.0,33034,17.25,74000.5,11.69,-27.39,-29.01,0,*40
1508501143.29,33035,17.25,74008.3,11.71,-28.43,-30.17,0,*45
1508501144.56,33036,17.25,74008.3,11.71,-28.31,-30.17,0,*43
1508501145.77,33037,17.25,74010.5,11.73,-28.53,-30.45,0,*43
1508501147.03,33038,17.25,74008.0,11.75,-29.01,-31.01,0,*4D
1508501148.27,33039,17.25,74004.0,11.73,-29.23,-31.23,0,*4A
1508501149.48,33040,17.25,74004.0,11.73,-27.93,-29.95,0,*45
1508501150.71,33041,17.25,74006.3,11.75,-28.15,-30.23,0,*46
1508501151.94,33042,17.25,74006.3,11.75,-28.37,-30.27,0,*41
1508501153.22,33043,17.25,74006.5,11.75,-28.47,-30.39,0,*48
1508501154.45,33044,17.25,74008.8,11.75,-28.37,-30.45,0,*43
1508501155.68,33045,17.25,74004.5,11.75,-30.23,-32.23,0,*4C
1508501156.88,33046,17.25,74008.0,11.73,-31.05,-33.15,0,*48
1508501158.13,33047,17.25,74006.5,11.75,-30.61,-32.57,0,*4B
1508501159.33,33048,17.25,74006.8,11.73,-31.05,-33.15,0,*46
1508501160.54,33049,17.25,74004.3,11.73,-30.27,-32.13,0,*41
1508501161.8,33050,17.25,74004.5,11.71,-30.01,-32.01,0,*4C
1508501163.06,33051,17.25,74008.5,11.71,-29.67,-31.61,0,*40
1508501164.29,33052,17.25,74008.5,11.71,-30.23,-32.35,0,*49
1508501165.56,33053,17.25,74010.0,11.69,-30.95,-32.79,0,*44
1508501166.79,33054,17.25,74004.8,11.69,-31.57,-33.55,0,*43
1508501168.08,33055,17.25,74004.0,11.71,-30.73,-32.45,0,*4C
1508501169.35,33056,17.25,74004.0,11.67,-31.95,-34.19,0,*4E
1508501170.56,33057,17.25,74004.0,11.65,-30.83,-32.57,0,*47
1508501171.79,33058,17.25,74004.0,11.65,-30.27,-31.91,0,*4F
1508501173.07,33059,17.25,74006.8,11.61,-30.01,-31.91,0,*4E
1508501174.3,33060,17.25,74008.5,11.65,-30.11,-31.85,0,*44
1508501175.56,33061,17.25,74006.5,11.65,-31.23,-33.09,0,*43
1508501176.79,33062,17.25,74006.3,11.63,-31.39,-33.15,0,*40
1508501178.06,33063,17.25,74004.8,11.61,-30.51,-32.29,0,*42
1508501179.31,33064,17.25,74002.3,11.61,-29.79,-31.57,0,*4D
1508501180.6,33065,17.25,74004.3,11.61,-29.89,-31.61,0,*46
1508501181.87,33066,17.25,74000.8,11.61,-29.45,-31.11,0,*42
1508501183.11,33067,17.25,74008.0,11.61,-29.67,-31.45,0,*42
1508501184.37,33068,17.25,74010.3,11.67,-29.07,-30.95,0,*41
1508501185.62,33069,17.25,74006.3,11.63,-29.73,-31.57,0,*48
1508501186.86,33070,17.25,74006.3,11.63,-29.45,-31.23,0,*46
1508501188.15,33071,17.25,74010.3,11.61,-28.43,-30.17,0,*44
1508501189.41,33072,17.25,74006.8,11.63,-28.79,-30.61,0,*4D
1508501190.68,33073,17.25,74006.8,11.65,-28.79,-30.61,0,*4A
1508501191.91,33074,17.25,74008.3,11.67,-29.79,-31.79,0,*46
1508501193.16,33075,17.25,74008.8,11.65,-30.77,-32.63,0,*4B
1508501194.39,33076,17.25,74006.3,11.63,-30.45,-32.29,0,*41
1508501195.59,33077,17.25,74004.8,11.63,-29.79,-31.67,0,*4E
1508501196.85,33078,17.25,74004.3,11.63,-30.51,-32.63,0,*44
1508501198.09,33079,17.25,74010.0,11.65,-30.51,-32.29,0,*4D
1508501199.32,33080,17.25,74006.8,11.63,-30.51,-32.23,0,*47
1508501200.61,33081,17.25,74004.5,11.61,-28.79,-30.51,0,*40
1508501201.87,33082,17.25,74006.3,11.61,-28.25,-29.83,0,*4D
1508501203.08,33083,17.25,74000.3,11.63,-27.93,-29.57,0,*45
1508501204.29,33084,17.25,74004.5,11.63,-28.37,-29.83,0,*4A
1508501205.55,33085,17.25,74004.5,11.65,-28.79,-30.51,0,*40
1508501206.79,33086,17.25,74000.0,11.65,-28.97,-30.61,0,*40
1508501208.05,33087,17.25,74000.0,11.67,-29.07,-30.73,0,*48
1508501209.29,33088,17.25,74002.0,11.65,-29.13,-30.83,0,*4F
1508501210.58,33089,17.25,74004.5,11.67,-29.01,-30.73,0,*40
1508501211.86,33090,17.25,74006.3,11.67,-29.17,-30.95,0,*47
1508501213.11,33091,17.25,73998.5,11.67,-29.23,-30.83,0,*46
1508501214.35,33092,17.25,74000.0,11.65,-28.91,-30.67,0,*45
1508501215.59,33093,17.25,74002.3,11.65,-29.13,-30.67,0,*4F
1508501216.88,33094,17.25,74002.3,11.67,-29.01,-30.61,0,*4F
1508501218.13,33095,17.25,73998.8,11.67,-28.47,-30.11,0,*4A
1508501219.36,33096,17.25,73998.8,11.67,-28.31,-29.79,0,*4E
1508501220.64,33097,17.25,73998.8,11.67,-28.21,-29.73,0,*44
1508501221.87,33098,17.25,73998.8,11.67,-28.69,-30.27,0,*4E
1508501223.1,33099,17.25,73998.8,11.65,-28.69,-30.05,0,*4D
1508501224.39,33100,17.25,73998.3,11.67,-29.17,-30.77,0,*43
1508501225.64,33101,17.25,73996.8,11.69,-29.17,-30.67,0,*4D
1508501226.93,33102,17.25,74000.3,11.67,-29.17,-30.77,0,*41
1508501228.16,33103,17.25,74000.3,11.67,-30.27,-32.01,0,*48
1508501229.45,33104,17.25,73998.5,11.67,-30.61,-32.19,0,*44
1508501230.67,33105,17.25,73996.8,11.65,-30.67,-32.29,0,*42
1508501231.91,33106,17.25,73998.0,11.65,-29.61,-31.39,0,*4D
1508501233.14,33107,17.25,73998.5,11.65,-29.29,-31.05,0,*4F
1508501234.38,33108,17.25,74002.3,11.63,-29.45,-31.23,0,*48
1508501235.61,33109,17.25,74000.5,11.63,-30.61,-32.23,0,*44
1508501236.84,33110,17.25,73996.0,11.61,-29.23,-31.05,0,*47
1508501238.08,33111,17.25,74000.3,11.59,-29.35,-31.05,0,*4A
1508501239.32,33112,17.25,73996.5,11.61,-28.97,-30.83,0,*44
1508501240.58,33113,17.25,73996.3,11.61,-28.59,-30.23,0,*4D
1508501241.86,33114,17.25,74000.8,11.61,-28.79,-30.51,0,*4D
1508501243.09,33115,17.25,74004.3,11.63,-28.09,-29.61,0,*42
1508501244.38,33116,17.25,74002.3,11.61,-28.59,-30.17,0,*4F
1508501245.65,33117,17.25,74002.8,11.61,-29.17,-30.83,0,*48
1508501246.86,33118,17.25,74006.3,11.63,-29.61,-31.33,0,*4E
1508501248.12,33119,17.25,74006.0,11.63,-29.29,-30.89,0,*43
1508501249.37,33120,17.25,74004.5,11.63,-28.97,-30.77,0,*4C
1508501250.64,33121,17.25,74004.0,11.63,-29.39,-31.23,0,*48
1508501251.92,33122,17.25,74004.8,11.61,-28.75,-30.39,0,*4A
1508501253.15,33123,17.25,74004.8,11.65,-29.07,-30.89,0,*40
1508501254.39,33124,17.25,74006.5,11.65,-28.53,-30.17,0,*40
1508501255.6,33125,17.25,74006.0,11.63,-29.07,-31.01,0,*41
1508501256.87,33126,17.25,74006.3,11.61,-29.13,-30.83,0,*4E
1508501258.16,33127,17.25,74006.8,11.61,-29.35,-31.23,0,*40
1508501259.42,33128,17.25,74010.8,11.63,-28.59,-30.51,0,*42
1508501260.67,33129,17.25,74010.3,11.61,-27.99,-29.79,0,*40
1508501261.91,33130,17.25,74010.8,11.63,-28.37,-30.17,0,*41
1508501263.18,33131,17.25,74008.3,11.65,-28.91,-30.77,0,*4C
1508501264.39,33132,17.25,74010.3,11.65,-29.23,-31.33,0,*46
1508501265.68,33133,17.25,74010.0,11.67,-29.51,-31.51,0,*44
1508501266.91,33134,17.25,74014.3,11.65,-29.79,-31.85,0,*42
1508501268.19,33135,17.25,74010.5,11.61,-30.01,-31.95,0,*41
1508501269.44,33136,17.25,74010.0,11.63,-29.23,-30.89,0,*44
1508501270.71,33137,17.25,74010.3,11.63,-28.79,-30.77,0,*4A
1508501271.99,33138,17.25,74008.3,11.61,-30.05,-32.07,0,*40
1508501273.2,33139,17.31,74008.3,11.63,-30.27,-32.23,0,*45
1508501274.43,33140,17.25,74006.3,11.63,-29.79,-31.73,0,*4E
1508501275.72,33141,17.25,74010.0,11.61,-29.13,-30.77,0,*44
1508501276.96,33142,17.31,74012.3,11.63,-28.79,-30.83,0,*43
1508501278.2,33143,17.25,74008.3,11.63,-29.13,-31.17,0,*43
1508501279.44,33144,17.25,74010.3,11.65,-28.69,-30.61,0,*4E
1508501280.69,33145,17.25,74008.0,11.63,-28.43,-30.51,0,*42
1508501281.91,33146,17.25,74010.3,11.65,-28.69,-30.67,0,*4A
1508501283.14,33147,17.25,74010.5,11.65,-28.25,-30.27,0,*47
1508501284.4,33148,17.25,74010.0,11.67,-27.55,-29.51,0,*4B
1508501285.66,33149,17.31,74010.3,11.67,-27.55,-29.51,0,*4A
1508501286.92,33150,17.25,74010.0,11.67,-27.67,-29.51,0,*43
1508501288.17,33151,17.25,74010.8,11.69,-27.83,-29.73,0,*46
1508501289.41,33152,17.31,74012.8,11.69,-28.43,-30.33,0,*4A
1508501290.67,33153,17.31,74012.5,11.71,-28.97,-30.95,0,*47
1508501291.9,33154,17.25,74010.3,11.69,-30.51,-32.35,0,*42
1508501293.19,33155,17.31,74012.5,11.71,-29.01,-30.95,0,*4F
1508501294.45,33156,17.25,74008.5,11.71,-29.29,-31.29,0,*40
1508501295.67,33157,17.31,74012.5,11.69,-31.05,-32.97,0,*49
1508501296.92,33158,17.31,74008.5,11.69,-32.45,-34.31,0,*4B
1508501298.13,33159,17.25,74008.3,11.65,-30.33,-32.23,0,*40